Flag for Germany Weather past 2 weeks in Castrop-Rauxel, North Rhine-Westphalia, Germany

Now
52 °F

Clear.


Feels Like: 49 °F
Forecast: 47 / 65 °F
Wind: 7 mph from South

Location: Dortmund / Wickede

Current Time: Aug 20, 2014 at 11:17:33 PM

Latest Report: Aug 20, 2014 at 10:50 PM


Visibility: 10 mi

Pressure: 30.01 "Hg

Humidity: 82%

Dew point: 46 °F

Location of Castrop-RauxelLocation

Historic Weather in Castrop-Rauxel — Graph

°F

Castrop-Rauxel temperature yesterday

Maximum temperature yesterday: 59 °F (at 4:50 PM)
Minimum temperature yesterday: 50 °F (at 9:20 PM)
Average temperature yesterday: 54 °F

Past Weeks' High & Low Weather Summary

 TemperatureHumidityPressure
High79 °F (Aug 8, 1:20 PM)94% (Aug 15, 7:20 AM)30.12 "Hg (Aug 15, 7:20 AM)
Low48 °F (Aug 20, 5:20 AM)39% (Aug 6, 3:20 PM)29.59 "Hg (Aug 10, 7:20 PM)
Average62 °F69%29.87 "Hg
* Reported Aug 5 10:20 PM — Aug 20 10:20 PM, Castrop-Rauxel, Weather by CustomWeather, © 2014

Note: Actual official high and low records may vary slightly from our data, if they occured in-between our weather recording intervals... More about our weather records

Advertising

Castrop-Rauxel weather history for previous 24 hours

 ConditionsComfort  
Time TempWeatherWind HumidityBarometerVisibility
10:20 PM
Aug 20
52 °FClear.6 mph88%30.04 "Hg10 mi
9:50 PM52 °FClear.3 mph82%30.04 "Hg10 mi
9:20 PM52 °FScattered showers. Clear.7 mph82%30.04 "HgN/A
8:50 PM55 °FScattered showers. Clear.6 mph72%30.01 "HgN/A
8:20 PM54 °FScattered showers. Clear.3 mph77%30.01 "HgN/A
7:50 PM55 °FSprinkles. Clear.5 mph72%30.01 "HgN/A
7:20 PM57 °FScattered showers. Clear.6 mph63%30.01 "HgN/A
6:50 PM59 °FSunny.6 mph63%29.98 "Hg10 mi
6:20 PM59 °FSunny.8 mph59%29.98 "Hg10 mi
5:50 PM63 °FSunny.10 mph49%29.98 "Hg10 mi
5:20 PM64 °FSunny.8 mph43%29.98 "Hg10 mi
4:50 PM64 °FSunny.9 mph43%29.98 "Hg10 mi
4:20 PM64 °FSunny.9 mph46%29.98 "Hg10 mi
3:50 PM64 °FSunny.12 mph43%29.98 "Hg10 mi
3:20 PM64 °FPassing clouds.7 mph46%29.98 "HgN/A
2:50 PM64 °FSunny.7 mph43%30.01 "Hg10 mi
2:20 PM63 °FPassing clouds.12 mph52%30.01 "HgN/A
1:50 PM64 °FScattered clouds.12 mph49%30.01 "HgN/A
1:20 PM64 °FScattered clouds.8 mph52%30.01 "HgN/A
12:50 PM63 °FScattered clouds.9 mph56%30.01 "HgN/A
12:20 PM61 °FPassing clouds.9 mph59%30.01 "HgN/A
11:50 AM59 °FScattered clouds.8 mph63%30.01 "HgN/A
11:20 AM59 °FScattered clouds.9 mph63%30.01 "HgN/A
10:50 AM57 °FPassing clouds.13 mph67%30.01 "HgN/A
10:20 AM57 °FSunny.10 mph67%30.01 "Hg10 mi
9:50 AM55 °FSunny.13 mph72%30.01 "Hg10 mi
9:20 AM55 °FSunny.12 mph72%30.01 "Hg10 mi
8:50 AM54 °FSunny.12 mph72%30.01 "Hg10 mi
8:20 AM52 °FSunny.10 mph77%29.98 "Hg10 mi
7:50 AM50 °FSunny.13 mph76%29.98 "Hg10 mi
7:20 AM50 °FClear.12 mph76%29.98 "Hg10 mi
6:50 AM50 °FPassing clouds.10 mph76%29.98 "HgN/A
6:20 AM48 °FScattered showers. Passing clouds.12 mph82%29.98 "HgN/A
5:50 AM48 °FPassing clouds.10 mph82%29.98 "HgN/A
5:20 AM48 °FPassing clouds.9 mph82%29.98 "HgN/A
Weather by CustomWeather, © 2014

See weather overviewHow to use our weather pages